Location: Holyhead Bay
(53.3667°N, 4.6667°W)
Time: 19:53:31
(UTC+00:00)

CSL-04 Rocket - Pass Details

Date: 24 November 2020
Orbit: 807 x 859 km, 98.9° (Epoch: 17 January)

Event Time Altitude Azimuth Distance (km) Brightness Sun altitude
Exits shadow 18:01:49 21° 106° (ESE) 1,795 4.9 -16.0°
Maximum altitude 18:04:31 32° 59° (ENE) 1,375 4.3 -16.4°
Drops below altitude 10° 18:09:12 10° 358° (N) 2,416 6.0 -17.0°
Sets 18:11:44 0° 349° (N) 3,346 6.8 -17.4°
